Location: Home
(42.5358°N, 72.7383°W)
Time: 06:49:50
(UTC-05:00)

Explorer 11/Cluster Stage 4 - Pass Details

Date: 03 December 2021
Orbit: 467 x 1255 km, 28.8° (Epoch: 25 January)

Event Time Altitude Azimuth Distance (km) Brightness Sun altitude
Rises 05:25:10 0° 255° (WSW) 3,939 - -17.6°
Reaches altitude 10° 05:28:23 10° 243° (WSW) 3,074 - -17.0°
Exits shadow 05:28:44 11° 241° (WSW) 2,988 9.1 -16.9°
Maximum altitude 05:34:30 26° 191° (S) 2,235 8.9 -15.9°
Drops below altitude 10° 05:40:54 10° 140° (SE) 3,220 10.6 -14.8°
Sets 05:44:22 0° 128° (SE) 4,163 11.7 -14.2°
